Location: Clermont
(50.2608°N, 4.3172°E)
Time: 15:18:12
(UTC+00:00)

Lacrosse 4 Rocket - Pass Details

Date: 13 August 2020
Orbit: 544 x 615 km, 68.0° (Epoch: 25 September)

Event Time Altitude Azimuth Distance (km) Brightness Sun altitude
Exits shadow 23:06:05 47° 281° (W) 765 2.1 -24.8°
Maximum altitude 23:06:39 51° 309° (NW) 726 2.1 -24.8°
Drops below altitude 10° 23:10:44 10° 27° (NNE) 1,863 4.7 -24.9°
Sets 23:12:59 0° 32° (NNE) 2,752 5.6 -25.0°
